Home   Weather   Decatur   Past weeks

Flag for USA Past Weather in Decatur, Illinois, USA — Yesterday and Last 2 Weeks

Now
49 °F

Light rain. Fog.


Feels Like: 44 °F
Forecast: 36 / 49 °F
Wind: 13 mph from Southeast

Location: Decatur Airport

Current Time: Jan 16, 2017 at 6:53:27 pm

Latest Report: Jan 16, 2017 at 5:54 pm


Visibility: 0 mi

Pressure: 29.96 "Hg

Humidity: 100%

Dew Point: 49 °F

Location of DecaturLocation

Past Weather in Decatur — Graph

°F

Decatur Temperature Yesterday

Maximum temperature yesterday: 34 °F (at 2:30 pm)
Minimum temperature yesterday: 29 °F (at 6:31 am)
Average temperature yesterday: 32 °F

High & Low Weather Summary for the Past Weeks

 TemperatureHumidityPressure
High61 °F (Jan 11, 5:54 pm)100% (Jan 2, 5:54 am)30.81 "Hg (Jan 2, 5:54 am)
Low0 °F (Jan 7, 5:54 am)54% (Jan 4, 8:54 pm)29.46 "Hg (Jan 10, 12:54 pm)
Average28 °F83%30.20 "Hg
* Reported Jan 1 5:54 pm — Jan 16 5:35 pm, Decatur, Weather by CustomWeather, © 2017

Note: Actual official high and low records may vary slightly from our data, if they occured in-between our weather recording intervals... More about our weather records

Advertising

Decatur Weather History for the Previous 24 Hours

Scroll right to see more
 ConditionsComfort  
Time TempWeatherWind HumidityBarometerVisibility
5:35 pm
Mon, Jan 16
49 °FFog.13 mph100%29.96 "Hg1 mi
4:54 pm48 °FLight rain. Fog.16 mph100%29.97 "Hg1 mi
4:20 pm48 °FLight rain. Fog.14 mph100%29.99 "Hg1 mi
3:54 pm48 °FFog.10 mph100%30.00 "Hg3 mi
2:54 pm46 °FFog.13 mph100%30.02 "Hg3 mi
2:36 pm46 °FLight rain. Fog.12 mph100%30.00 "Hg2 mi
1:54 pm46 °FLight rain. Fog.10 mph100%30.03 "Hg1 mi
12:54 pm43 °FFog.8 mph100%30.08 "Hg0 mi
11:54 am41 °FFog.8 mph100%30.11 "Hg0 mi
10:54 am39 °FFog.9 mph100%30.15 "Hg0 mi
9:54 am37 °FFog.8 mph100%30.18 "Hg0 mi
8:54 am35 °FFog.9 mph100%30.19 "Hg0 mi
7:54 am34 °FFog.7 mph100%30.20 "Hg0 mi
6:54 am34 °FFog.7 mph100%30.21 "Hg0 mi
5:54 am34 °FFog.5 mph100%30.23 "Hg1 mi
5:19 am34 °FLight rain. Fog.6 mph100%30.21 "Hg1 mi
4:54 am34 °FLight rain. Fog.9 mph100%30.22 "Hg1 mi
4:27 am34 °FFog.7 mph100%30.21 "Hg2 mi
3:54 am34 °FFog.7 mph100%30.23 "Hg2 mi
2:54 am33 °FFog.7 mph100%30.25 "Hg2 mi
2:37 am33 °FFog.5 mph100%30.24 "Hg2 mi
2:09 am33 °FFog.7 mph100%30.23 "Hg2 mi
1:54 am33 °FFog.6 mph100%30.26 "Hg2 mi
1:05 am33 °FFog.6 mph100%30.23 "Hg2 mi
11:54 pm
Sun, Jan 15
33 °FFog.7 mph100%30.27 "Hg2 mi
11:14 pm33 °FFog.7 mph100%30.26 "Hg3 mi
10:54 pm33 °FFog.6 mph100%30.29 "Hg3 mi
9:54 pm33 °FFog.5 mph100%30.30 "Hg3 mi
8:54 pm33 °FFog.8 mph96%30.30 "Hg4 mi
7:54 pm33 °FFog.7 mph96%30.31 "Hg4 mi
6:54 pm33 °FFog.8 mph96%30.33 "Hg5 mi
Weather by CustomWeather, © 2017

See weather overviewHow to use our weather pages